Location: Derby
(52.9213°N, 1.4761°W)
Time: 18:56:26
(UTC+01:00)

Tiros 1 - Pass Details

Date: 25 May 2025
Orbit: 620 x 651 km, 48.4° (Epoch: 13 June)

Event Time Altitude Azimuth Distance (km) Brightness Sun altitude
Rises 20:24:31 0° 271° (W) 2,901 11.8 5.2°
Reaches altitude 10° 20:26:56 10° 264° (W) 1,997 10.7 4.9°
Maximum altitude 20:31:12 39° 196° (SSW) 945 8.0 4.4°
Drops below altitude 10° 20:35:30 10° 128° (SE) 2,009 9.1 3.8°
Sets 20:37:55 0° 120° (ESE) 2,921 9.8 3.5°
